Total_Precipitation_Accumulation
0.00 0.00 0.00 0.00 0.00 0.00 0.01 0.02 0.04 0.12 0.19 0.17 0.22 0.27 0.29 0.35 0.43 0.88 0.59 0.23 0.11 0.05 0.02 0.02 0.03 0.05 0.06 0.06 0.07 0.10 0.11 0.11 0.11 0.10 0.09 0.09 0.09 0.08 0.08 0.09 0.11 0.15 0.18 0.17 0.16 0.16 0.16 0.13 0.10
0.00 0.00 0.00 0.00 0.00 0.00 0.01 0.02 0.05 0.10 0.15 0.15 0.19 0.24 0.23 0.24 0.22 0.19 0.26 0.18 0.12 0.07 0.03 0.02 0.02 0.04 0.05 0.05 0.06 0.10 0.11 0.11 0.10 0.09 0.08 0.08 0.09 0.09 0.09 0.11 0.16 0.22 0.27 0.28 0.23 0.19 0.17 0.14 0.10
0.00 0.00 0.00 0.00 0.00 0.00 0.02 0.04 0.07 0.09 0.12 0.17 0.22 0.33 0.32 0.23 0.22 0.18 0.21 0.15 0.13 0.08 0.06 0.04 0.03 0.04 0.04 0.04 0.04 0.07 0.10 0.09 0.09 0.09 0.09 0.09 0.10 0.11 0.13 0.17 0.21 0.26 0.29 0.28 0.25 0.23 0.21 0.15 0.09
0.00 0.00 0.00 0.00 0.00 0.00 0.02 0.06 0.09 0.09 0.10 0.14 0.16 0.34 0.37 0.26 0.28 0.26 0.22 0.19 0.16 0.11 0.09 0.06 0.05 0.05 0.04 0.04 0.04 0.06 0.08 0.10 0.11 0.13 0.13 0.13 0.13 0.14 0.18 0.25 0.29 0.28 0.28 0.29 0.30 0.28 0.23 0.15 0.10
0.00 0.00 0.00 0.00 0.00 0.00 0.01 0.04 0.07 0.08 0.07 0.09 0.17 0.33 0.48 0.44 0.44 0.43 0.36 0.31 0.25 0.18 0.14 0.12 0.10 0.08 0.07 0.05 0.06 0.08 0.11 0.14 0.19 0.23 0.21 0.18 0.17 0.18 0.23 0.30 0.32 0.31 0.35 0.35 0.32 0.26 0.19 0.12 0.11
0.00 0.00 0.00 0.00 0.00 0.00 0.01 0.02 0.04 0.06 0.06 0.09 0.21 0.45 0.75 0.86 0.85 0.78 0.70 0.46 0.36 0.24 0.25 0.19 0.15 0.13 0.13 0.12 0.12 0.13 0.17 0.21 0.24 0.26 0.23 0.20 0.18 0.19 0.24 0.27 0.27 0.30 0.32 0.26 0.18 0.14 0.11 0.11 0.11
0.00 0.00 0.00 0.00 0.00 0.00 0.01 0.04 0.05 0.06 0.07 0.10 0.21 0.45 0.73 1.00 1.09 1.07 0.95 0.69 0.57 0.44 0.47 0.37 0.24 0.20 0.17 0.21 0.23 0.20 0.19 0.21 0.25 0.25 0.22 0.18 0.17 0.16 0.17 0.18 0.20 0.21 0.18 0.14 0.12 0.09 0.08 0.08 0.08
0.00 0.00 0.00 0.00 0.01 0.01 0.02 0.05 0.08 0.09 0.11 0.14 0.27 0.51 0.92 1.04 0.93 1.04 0.98 0.84 0.88 0.87 0.80 0.46 0.26 0.24 0.22 0.20 0.25 0.27 0.25 0.24 0.23 0.20 0.17 0.14 0.13 0.14 0.15 0.14 0.15 0.17 0.17 0.15 0.11 0.08 0.07 0.07 0.06
0.00 0.00 0.00 0.00 0.01 0.01 0.02 0.04 0.07 0.07 0.08 0.18 0.25 0.38 0.75 0.86 0.84 1.04 1.06 1.11 1.13 1.02 0.85 0.63 0.39 0.28 0.26 0.25 0.24 0.23 0.24 0.23 0.21 0.19 0.17 0.15 0.15 0.17 0.17 0.13 0.16 0.18 0.18 0.15 0.14 0.11 0.09 0.08 0.07
0.00 0.00 0.00 0.00 0.00 0.01 0.02 0.03 0.06 0.07 0.08 0.15 0.22 0.35 0.62 0.77 0.95 1.09 1.18 1.41 1.19 1.07 0.92 0.79 0.65 0.49 0.39 0.33 0.36 0.35 0.30 0.29 0.25 0.29 0.25 0.26 0.38 0.42 0.33 0.36 0.32 0.28 0.23 0.20 0.20 0.17 0.13 0.11 0.10
0.00 0.00 0.00 0.00 0.00 0.00 0.01 0.02 0.04 0.08 0.15 0.37 0.36 0.48 0.61 0.75 0.95 1.14 1.35 1.59 1.54 1.37 1.11 0.96 0.89 0.87 0.73 0.62 0.56 0.48 0.46 0.49 0.45 0.55 0.49 0.55 0.63 0.56 0.53 0.61 0.51 0.44 0.36 0.33 0.35 0.25 0.19 0.18 0.22
0.00 0.00 0.00 0.00 0.00 0.00 0.00 0.01 0.03 0.08 0.21 0.36 0.41 0.57 0.73 0.79 0.88 1.09 1.33 1.53 1.67 1.62 1.41 1.33 1.06 0.96 0.97 1.06 1.00 0.72 0.64 0.64 0.59 0.69 0.69 0.79 0.89 0.86 0.89 0.89 0.74 0.71 0.66 0.64 0.56 0.49 0.43 0.38 0.36
0.00 0.00 0.00 0.00 0.00 0.00 0.00 0.00 0.02 0.06 0.10 0.18 0.29 0.50 0.70 0.67 0.79 0.97 1.34 1.81 2.06 2.05 1.81 1.62 1.43 1.24 1.20 1.35 1.32 0.93 0.85 0.94 1.09 1.13 0.95 0.97 0.96 0.99 1.09 1.06 1.03 0.98 1.04 1.00 0.86 0.74 0.79 0.77 0.65
0.00 0.00 0.00 0.00 0.00 0.00 0.00 0.01 0.02 0.05 0.07 0.16 0.24 0.37 0.65 0.81 1.05 1.31 1.58 2.03 2.31 2.36 2.17 1.95 1.76 1.61 1.53 1.54 1.50 1.35 1.19 1.30 1.42 1.39 1.31 1.22 1.23 1.35 1.39 1.44 1.40 1.28 1.29 1.29 1.18 1.09 1.08 1.00 0.92
0.00 0.00 0.00 0.00 0.00 0.00 0.00 0.02 0.04 0.04 0.06 0.12 0.20 0.34 0.55 0.79 1.06 1.33 1.76 2.03 2.09 2.07 1.98 1.99 1.83 1.85 1.86 1.79 1.71 1.69 1.71 1.76 1.86 1.81 1.66 1.51 1.51 1.78 1.78 1.80 1.70 1.61 1.60 1.65 1.58 1.47 1.38 1.19 1.06
0.00 0.00 0.00 0.00 0.00 0.00 0.00 0.04 0.11 0.07 0.05 0.09 0.19 0.32 0.38 0.56 0.84 1.12 1.43 1.65 1.77 2.09 2.15 2.15 2.11 2.02 2.01 2.07 2.04 2.04 2.05 2.20 2.22 2.26 2.24 2.02 1.89 2.03 2.14 2.17 2.06 1.93 1.84 1.96 2.00 1.86 1.73 1.57 1.48
0.00 0.01 0.01 0.01 0.01 0.00 0.01 0.05 0.12 0.09 0.11 0.17 0.29 0.41 0.40 0.52 0.76 1.02 1.30 1.58 1.80 1.99 2.24 2.23 2.20 2.29 2.27 2.34 2.30 2.43 2.56 2.58 2.56 2.58 2.62 2.57 2.48 2.53 2.53 2.49 2.48 2.41 2.40 2.39 2.22 2.16 2.02 2.00 1.91
0.00 0.00 0.01 0.01 0.01 0.01 0.03 0.08 0.13 0.15 0.15 0.27 0.40 0.44 0.49 0.57 0.64 0.81 1.14 1.67 1.94 1.99 2.04 2.23 2.32 2.43 2.43 2.62 2.68 2.74 2.83 2.93 3.10 3.33 3.41 3.21 3.14 3.04 3.09 3.03 2.95 2.89 2.83 2.65 2.55 2.46 2.28 2.13 2.00
0.00 0.00 0.01 0.01 0.01 0.01 0.05 0.09 0.15 0.19 0.22 0.31 0.38 0.38 0.35 0.47 0.61 0.80 1.13 1.61 2.16 2.17 2.11 2.29 2.54 2.65 2.66 2.90 3.04 3.19 3.50 3.66 3.81 3.96 3.92 3.84 3.70 3.72 3.70 3.56 3.31 3.15 3.11 2.99 2.90 2.69 2.48 2.23 2.05
0.00 0.00 0.01 0.03 0.02 0.03 0.08 0.14 0.19 0.24 0.26 0.34 0.43 0.46 0.43 0.49 0.73 1.01 1.33 1.87 2.34 2.53 2.59 2.63 2.85 3.11 3.30 3.49 3.83 4.17 4.49 4.71 4.84 4.89 4.47 4.25 4.13 4.04 4.00 3.97 3.88 3.63 3.42 3.21 2.96 2.82 2.66 2.29 2.06
0.01 0.01 0.02 0.06 0.05 0.06 0.13 0.26 0.34 0.36 0.38 0.48 0.64 0.73 0.81 0.86 1.07 1.30 1.55 1.96 2.33 2.51 2.66 2.77 3.01 3.43 3.90 4.28 4.68 5.09 5.33 5.41 5.21 4.95 4.84 4.67 4.52 4.39 4.24 4.07 3.81 3.61 3.45 3.31 3.09 2.84 2.69 2.40 2.15
0.01 0.01 0.01 0.02 0.04 0.09 0.13 0.32 0.59 0.58 0.56 0.67 0.81 0.78 0.81 0.97 1.22 1.49 1.75 2.01 2.31 2.49 2.61 2.90 3.41 4.04 4.58 5.02 5.51 6.02 6.18 6.02 5.73 5.31 4.93 4.67 4.40 4.08 3.81 3.65 3.52 3.32 3.02 2.78 2.65 2.51 2.27 2.10 1.96
0.01 0.01 0.01 0.01 0.02 0.07 0.10 0.26 0.71 0.83 0.83 0.91 1.05 0.93 0.87 0.84 1.02 1.32 1.56 1.77 2.07 2.22 2.46 2.84 3.44 4.14 4.85 5.61 6.24 6.65 6.61 6.31 5.92 5.28 4.70 4.19 3.81 3.51 3.23 3.07 2.88 2.63 2.29 1.95 1.85 1.87 1.89 1.82 1.72
0.01 0.01 0.01 0.02 0.03 0.07 0.10 0.26 0.73 1.09 1.21 1.26 1.09 0.95 0.85 0.80 0.84 0.91 1.05 1.26 1.51 1.85 2.20 2.60 3.22 3.95 4.62 5.28 5.78 5.90 5.83 5.68 5.21 4.54 3.94 3.56 3.23 2.91 2.55 2.24 1.94 1.71 1.56 1.37 1.31 1.33 1.39 1.51 1.55
0.01 0.02 0.08 0.12 0.16 0.15 0.13 0.29 0.75 1.11 1.30 1.18 0.99 0.88 0.74 0.68 0.65 0.68 0.74 0.94 1.23 1.48 1.83 2.28 2.72 3.30 3.76 4.14 4.55 4.66 4.65 4.51 4.25 3.83 3.42 3.03 2.55 2.20 1.91 1.61 1.42 1.29 1.21 1.14 1.07 1.03 1.05 1.15 1.26
0.02 0.02 0.12 0.22 0.22 0.25 0.31 0.56 0.99 1.07 1.08 0.96 0.84 0.76 0.66 0.62 0.63 0.68 0.75 0.87 1.10 1.33 1.57 1.78 2.07 2.42 2.59 2.67 2.88 3.07 3.07 3.09 3.02 2.77 2.53 2.27 1.93 1.61 1.35 1.14 0.97 0.88 0.86 0.86 0.84 0.85 0.88 0.92 0.99
0.02 0.03 0.06 0.10 0.11 0.28 0.56 0.85 1.24 1.11 0.97 0.90 0.88 0.75 0.66 0.63 0.63 0.65 0.69 0.74 0.86 1.01 1.11 1.20 1.34 1.51 1.59 1.67 1.70 1.78 1.85 1.87 1.83 1.72 1.55 1.37 1.20 1.01 0.86 0.74 0.67 0.63 0.61 0.60 0.58 0.60 0.66 0.73 0.79
0.04 0.05 0.07 0.12 0.26 0.44 0.66 1.01 1.45 1.56 1.27 1.01 0.83 0.68 0.58 0.57 0.58 0.59 0.61 0.64 0.70 0.74 0.80 0.85 0.89 0.99 1.09 1.16 1.16 1.17 1.18 1.14 1.06 1.00 0.96 0.86 0.76 0.68 0.61 0.53 0.47 0.44 0.42 0.39 0.37 0.39 0.42 0.46 0.54
0.08 0.09 0.12 0.17 0.20 0.42 0.74 1.28 1.52 1.79 1.75 1.30 0.93 0.78 0.69 0.62 0.58 0.60 0.61 0.53 0.52 0.54 0.58 0.64 0.68 0.73 0.77 0.81 0.84 0.85 0.82 0.78 0.75 0.71 0.67 0.62 0.53 0.45 0.40 0.34 0.32 0.30 0.28 0.28 0.30 0.34 0.38 0.41 0.43
0.10 0.12 0.18 0.36 0.38 0.37 0.73 1.52 1.72 1.96 2.00 1.68 1.33 1.14 1.05 0.83 0.71 0.68 0.64 0.55 0.50 0.53 0.53 0.55 0.57 0.60 0.65 0.61 0.61 0.65 0.60 0.54 0.52 0.50 0.44 0.40 0.38 0.33 0.28 0.24 0.24 0.24 0.25 0.24 0.24 0.27 0.33 0.38 0.38